This demonstration page uses our WeatherBlox Daily Observations layout. Learn more.

Left ArrowRight Arrow

39.08367, -84.50855

Hourly Observations for December 28, 2017

Temp ( °F °C ) Dew Point ( °F °C ) Humidity (%) Winds ( mph kmh ) Pressure ( in mb ) Visibility ( mi km ) Precip ( " mm )
12:53 am 00:53 Clear 11 -11.7 2 -16.7 67 67 NE 6 9 30.73 1041 10 16 N/A
1:53 am 01:53 Clear 10 -12.2 2 -16.7 69 69 NE 7 11 30.72 1040 10 16 N/A
2:53 am 02:53 Clear 10 -12.2 2 -16.7 69 69 NE 8 13 30.72 1040 10 16 N/A
3:53 am 03:53 Clear 9 -12.8 2 -16.7 73 73 NE 7 11 30.73 1041 10 16 N/A
4:53 am 04:53 Clear 8 -13.3 2 -16.7 76 76 NE 6 9 30.71 1040 10 16 N/A
5:53 am 05:53 Clear 9 -12.8 2 -16.7 73 73 NE 5 7 30.72 1040 10 16 N/A
6:53 am 06:53 Clear 10 -12.2 3 -16.1 73 73 NNE 6 9 30.74 1041 10 16 N/A
7:53 am 07:53 Cloudy 11 -11.7 3 -16.1 70 70 NE 8 13 30.74 1041 10 16 N/A
8:53 am 08:53 Cloudy 12 -11.1 3 -16.1 67 67 E 5 7 30.72 1040 10 16 N/A
9:53 am 09:53 Cloudy 13 -10.6 3 -16.1 64 64 ENE 9 15 30.71 1040 10 16 N/A
10:53 am 10:53 Cloudy 14 -10 2 -16.7 58 58 E 9 15 30.71 1040 10 16 N/A
11:53 am 11:53 Cloudy 17 -8.3 3 -16.1 54 54 E 9 15 30.69 1039 10 16 N/A
12:53 pm 12:53 Cloudy 18 -7.8 3 -16.1 52 52 E 7 11 30.63 1037 10 16 N/A
1:53 pm 13:53 Sunny 19 -7.2 2 -16.7 47 47 E 7 11 30.58 1036 10 16 N/A
2:53 pm 14:53 Sunny 21 -6.1 2 -16.7 43 43 E 7 11 30.55 1035 10 16 N/A
3:53 pm 15:53 Sunny 21 -6.1 2 -16.7 43 43 ENE 6 9 30.53 1034 10 16 N/A
4:53 pm 16:53 Sunny 20 -6.7 3 -16.1 48 48 VRB 3 6 30.51 1033 10 16 N/A
5:53 pm 17:53 Clear 18 -7.8 3 -16.1 52 52 E 3 6 30.51 1033 10 16 N/A
6:53 pm 18:53 Clear 16 -8.9 5 -15 62 62 NE 3 6 30.51 1033 10 16 N/A
7:53 pm 19:53 Mostly Clear 14 -10 7 -13.9 73 73 N N/A 30.50 1033 10 16 N/A
8:53 pm 20:53 Cloudy 16 -8.9 10 -12.2 77 77 N N/A 30.50 1033 10 16 N/A
9:53 pm 21:53 Cloudy 17 -8.3 9 -12.8 70 70 NE 3 6 30.48 1032 10 16 N/A
10:53 pm 22:53 Cloudy 18 -7.8 8 -13.3 65 65 N N/A 30.46 1031 10 16 N/A
11:53 pm 23:53 Mostly Cloudy 16 -8.9 8 -13.3 71 71 N N/A 30.42 1030 10 16 N/A

Powered by AerisWeather